Regional Weather Roundup
Issued by NWS

Home | Current Version | Previous Version | Text Only | Print | Product List | Glossary Off
Versions: 1 2 3 4 5 6 7 8 9 10 11 12 13 14 15 16 17 18 19 20 21 22 23 24 25 26 27 28 29 30 31 32 33 34 35 36 37 38 39 40 41 42 43 44 45 46 47 48 49 50

000
ASUS43 KMKX 290611
RWRWI

WISCONSIN REGIONAL WEATHER ROUNDUP
NATIONAL WEATHER SERVICE MILWAUKEE/SULLIVAN WI
100 AM CDT FRI JUL 29 2016

NOTE: "FAIR" INDICATES FEW OR NO CLOUDS BELOW 12,000 FEET WITH NO
SIGNIFICANT WEATHER AND/OR OBSTRUCTIONS TO VISIBILITY.

WIZ001-002-006>008-014>016-023>028-290700-
NORTHWEST WISCONSIN

CITY           SKY/WX    TMP DP  RH WIND       PRES   REMARKS
SUPERIOR ARPT  CLEAR     56  56  97 CALM      30.09S
6HR MIN TEMP:  56; 6HR MAX TEMP:  65;

ASHLAND        CLEAR     48  48 100 CALM      30.09S
6HR MIN TEMP:  47; 6HR MAX TEMP:  67;

HAYWARD        CLEAR     54  51  90 N3        30.10R
6HR MIN TEMP:  53; 6HR MAX TEMP:  68;

SIREN          NOT AVBL
CUMBERLAND     PTCLDY    59  52  77 NE6       30.08S
RICE LAKE      PTCLDY    58  54  86 CALM      30.09S
6HR MIN TEMP:  58; 6HR MAX TEMP:  71;

CHETEK         MOCLDY    63  56  78 NE6       30.07S
6HR MIN TEMP:  63; 6HR MAX TEMP:  72;

LADYSMITH      PTCLDY    60  55  83 NE3       30.09S
6HR MIN TEMP:  60; 6HR MAX TEMP:  72;

EAU CLAIRE     CLOUDY    64  62  93 N5        30.03S
6HR MIN TEMP:  64; 6HR MAX TEMP:  66; 6HR PCP:  0.01;

MENOMONIE      CLOUDY    65  62  88 NW3       30.05S
6HR MIN TEMP:  65; 6HR MAX TEMP:  69;

NEW RICHMOND   CLOUDY    61  55  82 CALM      30.07R
6HR MIN TEMP:  60; 6HR MAX TEMP:  73;

OSCEOLA        PTCLDY    61  55  81 NE3       30.09S
6HR MIN TEMP:  61; 6HR MAX TEMP:  72;

$$

WIZ003>005-009-010-017-018-290700-
NORTH CENTRAL WISCONSIN

CITY           SKY/WX    TMP DP  RH WIND       PRES   REMARKS
MANITOWISH WTR CLEAR     50  50 100 CALM      30.09F
6HR MIN TEMP:  49; 6HR MAX TEMP:  67;

ARBOR VITAE    PTCLDY    52  51  93 CALM      30.09S
6HR MIN TEMP:  52; 6HR MAX TEMP:  69;

WOODRUFF       PTCLDY    52  51  93 CALM      30.09S
6HR MIN TEMP:  52; 6HR MAX TEMP:  69;

RHINELANDER    CLEAR     54  51  90 CALM      30.08F
6HR MIN TEMP:  54; 6HR MAX TEMP:  70;

EAGLE RIVER    CLEAR     49  49 100 CALM      30.09S
6HR MIN TEMP:  49; 6HR MAX TEMP:  65;

LAND O LAKES   CLEAR     48  47  95 CALM      30.10S
6HR MIN TEMP:  48; 6HR MAX TEMP:  66; 6HR PCP:  0.02;

PHILLIPS       CLEAR     53  53 100 CALM      30.08S
6HR MIN TEMP:  53; 6HR MAX TEMP:  70;

TOMAHAWK       CLEAR     53  51  92 CALM      30.08F
6HR MIN TEMP:  52; 6HR MAX TEMP:  69;

MEDFORD        CLOUDY    60  56  85 NE8       30.05F
6HR MIN TEMP:  60; 6HR MAX TEMP:  65;

MERRILL        CLOUDY    60  56  86 CALM      30.07S
6HR MIN TEMP:  60; 6HR MAX TEMP:  69;

$$

WIZ029-030-035-036-043>047-290700-
CENTRAL WISCONSIN

CITY           SKY/WX    TMP DP  RH WIND       PRES   REMARKS
WAUSAU         CLOUDY    63  55  75 VRB3      30.04S
6HR MIN TEMP:  63; 6HR MAX TEMP:  68; 6HR PCP: TRACE;

MOSINEE        CLOUDY    63  57  82 NE8       30.05F
MARSHFIELD     MOCLDY    64  59  83 NE7       30.03F
6HR MIN TEMP:  64; 6HR MAX TEMP:  66; 6HR PCP: TRACE;

STEVENS POINT  LGT RAIN  60  58  96 NE5       30.04F
6HR MIN TEMP:  59; 6HR MAX TEMP:  63; 6HR PCP:  0.02;

WAUPACA        CLOUDY    66  56  70 NE7       30.03S
6HR MIN TEMP:  66; 6HR MAX TEMP:  69;

WAUTOMA        CLOUDY    66  61  84 NE8       30.02R
6HR MIN TEMP:  65; 6HR MAX TEMP:  69;

WISC RAPIDS    CLOUDY    65  56  72 NE9       30.03S
6HR MIN TEMP:  65; 6HR MAX TEMP:  68; 6HR PCP: TRACE;

CAMP DOUGLAS   NOT AVBL
$$

WIZ011>013-019>022-031-037>040-048>050-290700-
NORTHEAST WISCONSIN

CITY           SKY/WX    TMP DP  RH WIND       PRES   REMARKS
ANTIGO         CLOUDY    59  54  84 CALM      30.07R
6HR MIN TEMP:  59; 6HR MAX TEMP:  67;

SHAWANO        CLOUDY    64  54  69 NE10      30.05R
6HR MIN TEMP:  64; 6HR MAX TEMP:  70; 6HR PCP:  0.01;

OCONTO         CLOUDY    60  58  92 N5        30.03R
6HR MIN TEMP:  60; 6HR MAX TEMP:  68;

STURGEON BAY   CLOUDY    64  57  78 NE9       30.03S
6HR MIN TEMP:  64; 6HR MAX TEMP:  69; 6HR PCP: TRACE;

GREEN BAY      LGT RAIN  61  59  93 N9        30.02R
6HR MIN TEMP:  61; 6HR MAX TEMP:  68; 6HR PCP: TRACE;

MANITOWOC      RAIN      64  60  87 VRB5      30.01R
6HR MIN TEMP:  64; 6HR MAX TEMP:  67;

APPLETON       CLOUDY    63  52  67 NE12      30.01R
CLINTONVILLE   CLOUDY    63  52  67 N6        30.03S
OSHKOSH        CLOUDY    67  58  72 NE12      30.00R
6HR MIN TEMP:  67; 6HR MAX TEMP:  69; 6HR PCP:  0.15;

$$

WIZ032>034-041-042-053>061-290700-
SOUTHWEST WISCONSIN

CITY           SKY/WX    TMP DP  RH WIND       PRES   REMARKS
LA CROSSE      CLOUDY    65  62  90 N3        30.00S
6HR MIN TEMP:  64; 6HR MAX TEMP:  66; 6HR PCP:  0.03;

SPARTA         CLOUDY    64  61  91 CALM      30.02S
6HR MIN TEMP:  62; 6HR MAX TEMP:  64;

VIROQUA        CLOUDY    64  64 100 NE6       30.00S
6HR MIN TEMP:  64; 6HR MAX TEMP:  65; 6HR PCP:  0.01;

BOSCOBEL       CLOUDY    70  65  84 NE5       29.97R
6HR MIN TEMP:  70; 6HR MAX TEMP:  73; 6HR PCP: TRACE;

PRAIRIE DU CHI CLOUDY    67  66  95 CALM      29.96S
6HR MIN TEMP:  67; 6HR MAX TEMP:  69; 6HR PCP:  0.50;

PLATTEVILLE    MOCLDY    69  68  97 E9        29.97S
6HR MIN TEMP:  69; 6HR MAX TEMP:  73;

$$

WIZ056-057-062-063-064-067-068-290700-
SOUTH CENTRAL WISCONSIN

CITY           SKY/WX    TMP DP  RH WIND       PRES   REMARKS
REEDSBURG      CLOUDY    66  61  82 NE5       29.99S
6HR MIN TEMP:  66; 6HR MAX TEMP:  71;

BARABOO/DELLS  CLOUDY    65  58  79 NE8       30.00R
6HR MIN TEMP:  65; 6HR MAX TEMP:  70;

LONE ROCK      CLOUDY    69  63  81 NE5       29.98R
6HR MIN TEMP:  69; 6HR MAX TEMP:  73;

MINERAL POINT  CLOUDY    68  64  88 NE3       29.97S
MADISON        CLOUDY    67  60  78 NE7       29.98R
6HR MIN TEMP:  67; 6HR MAX TEMP:  73;

MIDDLETON      CLOUDY    68  62  82 NE6       29.99S
6HR MIN TEMP:  68; 6HR MAX TEMP:  73;

WATERTOWN      CLOUDY    65  62  90 NE6       29.98R
6HR MIN TEMP:  65; 6HR MAX TEMP:  69;

MONROE         CLOUDY    64  63  94 NE8       29.97R
JANESVILLE     CLOUDY    68  64  88 NE3       29.95S
$$

WIZ051-052-058>065-066-070>072-290700-
SOUTHEAST WISCONSIN

CITY           SKY/WX    TMP DP  RH WIND       PRES   REMARKS
MILWAUKEE      CLOUDY    69  64  84 N15G22    29.95S
6HR MIN TEMP:  67; 6HR MAX TEMP:  69; 6HR PCP: TRACE;

WAUKESHA       CLOUDY    64  59  82 NE7       29.98S
MILWAUKEE/TIMM CLOUDY    66  61  82 NE12G17   29.97S
RACINE         CLOUDY    68  64  87 N12       29.96S
6HR MIN TEMP:  66; 6HR MAX TEMP:  70;

BURLINGTON     CLOUDY    65  64  94 N3        29.95S
6HR MIN TEMP:  65; 6HR MAX TEMP:  69;

KENOSHA        CLOUDY    67  65  93 N6        29.95S
6HR MIN TEMP:  67; 6HR MAX TEMP:  69;

FOND DU LAC    TSTM      65  62  90 NE13      30.01R FOG
6HR MIN TEMP:  65; 6HR MAX TEMP:  72; 6HR PCP:  0.04;

SHEBOYGAN      CLOUDY    65  62  90 N10       30.00R
6HR MIN TEMP:  63; 6HR MAX TEMP:  68; 6HR PCP: TRACE;

WEST BEND      CLOUDY    63  61  94 NE9       29.99R
JUNEAU         CLOUDY    63  61  92 N9        30.00S
6HR MIN TEMP:  63; 6HR MAX TEMP:  70;

$$

LSZ147-162-290700-
LAKE SUPERIOR

STATION/POSITION TIME  TEMP    WIND        PRES    WAVE
                       AIR SEA DIR/SP/G            HT/PER
                 (UTC) (F)     (DEG/KT/KT) (MB)    (FT/S)
W MID LAKE BUOY  0550   61 60   10/  6/  8 1018.5F   1
DEVILS ISLAND    0600   62      20/  8/  9 1019.0F
PORT WING        0400   56      CALM  /  2 1019.0F
SAXON HARBOR     0500   54     200/  4/  6 1018.3
$$

LMZ867-665-643>646-290700-
LAKE MICHIGAN

STATION/POSITION TIME  TEMP    WIND        PRES    WAVE
                       AIR SEA DIR/SP/G            HT/PER
                 (UTC) (F)     (DEG/KT/KT) (MBC1F1C2F2C3F3C4F4C5F5C6F6C7F7C8M1C9M2Ca!



USA.gov is the U.S. government's official web portal to all federal, state and local government web resources and services.